Карточка аэропорта URRP

Внимание!
Информация на этой странице в стадии наполнения.
Если вы не увидели какой-то информации, или заметили неточность - пожалуйста сообщите нам!
Спасибо!
Команда RU-STAFF
Название аэропортаПлатов
Название аэропорта (англ.)Platov
Превышение282 ft. (86 m.)
Координаты47°29.634', 39°55.482'
Высота перехода3500 ft
Эшелон переходаFL50 (QNH >= 996); FL60 (QNH < 996)
Коды ответчика1001-1017
Зона ОрВДРостов-на-Дону РПИ (URRV)
Данные METARURRP 232230Z 08006MPS CAVOK 18/08 Q1018 R05/CLRD70 NOSIG RMK QFE758/1011
Проноз погоды (TAF)URRP 231956Z 2321/2421 07006G14MPS 6000 FEW020CB BECMG 2403/2406 08008G16MPS TEMPO 2406/2418 10011G21MPS SCT020CB
NOTAMshow/hide NOTAM
AWOS   TABLE

Информация о ВПП

ВПП Длина ВПП (м.) Покрытие Курс ВПП Частота ILS
053900Цементобетон46111.5
233900Цементобетон226110.9

Диспетчерские позиции

Позывной Наименование органа УВД Частота
URRP_R_APPПлатов - Круг121.2
URRP_GNDПлатов - руление119.0
URRP_TWRПлатов-Вышка119.7
URRP_DELПлатов-деливери127.1
URRP_APPПлатов-подход128.2



Спутниковое изображение